KUIPER-00085 (64831 NORAD) Tracking and Keplerian Element Data

This shows tracking and keplerian element data for the satellite.

Feedback or suggestion? Click here.




ElementValue
Catalog64831
NameKUIPER-00085
Epoch Orbit2368
Epoch Day354.05454847
Epoch Year2025
RAAN280.2514
Inclination51.9042
Eccentricity0.0007795
Argument of Perigee358.7383
Mean Anonmoly1.3559
Mean Motion14.79866659
Decay Rate3.629E-05
L11 64831U 25151R 25354.05454847 .00003629 00000+0 50556-3 0 9995
L22 64831 51.9042 280.2514 0007795 358.7383 1.3559 14.79866659 23685



Live tracking and technical data element details for KUIPER-00085 (NORAD 64831). KUIPER-00085 can be tracked NOW for your location showing map with azimuth and elevation plus other details from your city location.







IsCatalogInMostPopularTable: catalog: 64831, numindb: 12
Update: records affected: 1



GetName: 64831 KUIPER-00085

Hit Count: updated at: Wed, 15 Apr 2026 01:10:21 GMT